Tracking 22438 objects as of 25-Feb-2021
HD Live streaming from Space Station
objects crossing your sky now

FREGAT DEB

Track FREGAT DEB now!
10-day predictions


NORAD ID: 45955
Int'l Code: 2011-037FL
Perigee: 863.7 km
Apogee: 5,298.8 km
Inclination: 51.7 °
Period: 152.4 minutes
Semi major axis: 9452 km
RCS: Unknown
Launch date: July 18, 2011
Source: Commonwealth of Independent States (former USSR) (CIS)
Launch site: TYURATAM MISSILE AND SPACE COMPLEX (TTMTR)

Note: This is SATELLITE DEBRIS
aabbcc
Your satellite tracking list
Your tracking list is empty




NASA's NSSDC Master Catalog

Two Line Element Set (TLE):
1 45955U 11037FL  20336.96214783 +.00011221 +00000-0 +55695-1 0  9992
2 45955 051.6646 088.7807 2346041 234.9242 100.8757 09.44709454012346
Source of the keplerian elements: AFSPC